Wind_Speed
38 36 40 36 32 35 40 40 42 40 38 40 36 27 35 36 36 37 36 37 38 34
37 39 35 34 31 35 40 41 38 36 38 38 31 32 44 32 33 39 38 39 37 31
34 36 37 32 33 38 40 39 39 38 31 27 27 40 43 41 33 35 39 40 33 29
36 33 32 36 39 41 36 34 32 30 21 21 27 35 32 33 32 33 35 31 27 26
38 38 39 43 48 41 40 35 33 27 27 37 32 31 30 32 32 33 30 26 24 22
40 42 47 50 42 41 38 36 37 33 36 39 34 34 32 33 30 27 25 23 20 21
40 46 44 42 38 37 39 41 43 39 38 36 31 30 29 28 24 20 19 19 21 19
39 35 34 34 37 34 33 36 38 39 35 30 30 28 27 23 21 19 19 19 18 15
32 33 33 32 33 30 31 31 31 30 29 28 23 22 20 19 19 19 19 18 16 16
29 28 27 26 26 27 29 28 24 24 23 20 19 19 19 18 18 18 18 19 21 16
24 24 24 26 26 26 24 22 20 18 17 18 18 19 19 18 18 19 19 20 16 12
26 27 28 29 29 26 24 21 18 17 17 19 19 19 20 20 22 22 18 14 11 9
25 26 25 23 23 22 21 20 19 18 18 19 21 19 20 21 21 17 13 9 5 2
23 23 22 22 21 22 22 23 23 22 20 22 21 18 17 16 15 13 11 6 4 4
Wind_Direction
220 223 227 228 231 235 239 245 250 255 254 246 241 258 265 253 248 242 237 234 234 232
219 223 228 231 240 246 249 251 253 260 259 248 239 245 253 249 256 243 236 234 234 232
220 228 233 235 243 249 252 253 258 260 255 249 265 249 249 240 244 241 235 232 231 231
223 224 230 236 241 244 246 249 251 249 234 255 261 252 241 248 248 237 229 229 228 231
215 216 223 232 237 235 235 246 242 233 239 242 257 260 251 244 235 225 222 227 226 218
210 212 218 229 225 225 225 226 216 241 246 241 248 253 248 236 228 224 226 229 220 209
209 214 221 226 226 220 218 213 219 225 232 238 240 246 240 221 222 225 224 221 210 209
212 212 215 216 223 220 216 214 216 226 228 239 234 225 219 218 213 210 207 203 203 204
202 202 209 215 213 216 214 213 216 216 216 208 207 216 216 208 202 202 200 191 184 177
205 206 208 208 203 205 201 195 194 192 191 193 199 203 201 200 199 195 190 191 178 175
190 192 192 190 190 191 182 174 175 179 188 194 195 190 188 189 186 183 180 174 174 185
173 168 173 173 174 170 167 166 167 177 183 184 177 183 182 179 172 160 155 164 178 197
177 176 172 169 163 160 162 160 162 161 169 172 160 165 166 170 163 154 159 168 179 193
173 175 175 164 160 156 155 148 143 140 141 143 147 155 166 173 173 177 173 179 206 257
Height
781 785 789 791 795 795 797 798 802 806 807 807 809 813 814 815 817 817 819 821 822 824
775 779 780 787 790 792 793 795 798 799 801 801 803 804 807 809 805 809 813 816 818 820
769 774 777 783 785 788 791 792 794 793 795 797 794 799 803 801 802 803 807 808 812 814
764 771 777 780 780 779 782 784 786 786 787 787 790 793 796 798 799 801 802 805 808 811
757 761 765 766 762 767 768 771 773 780 773 772 783 788 790 791 793 797 797 800 803 807
744 749 747 747 749 752 760 764 768 770 768 771 777 781 783 786 788 791 794 797 799 803
732 734 738 741 746 748 750 755 758 761 763 768 773 775 779 781 785 788 792 794 798 801
722 728 732 735 739 743 746 749 750 753 757 762 766 770 775 777 780 785 790 794 796 800
716 722 724 729 734 737 741 744 747 750 755 759 762 767 772 775 780 785 789 791 795 798
710 714 718 723 728 731 734 739 743 748 752 754 760 766 770 774 778 781 784 787 791 795
706 710 715 719 723 727 732 734 739 743 748 753 760 764 767 771 774 778 782 786 789 793
703 709 712 715 718 723 727 733 738 744 749 754 758 763 766 770 774 778 782 786 788 791
704 708 713 717 721 725 731 737 741 747 753 757 761 765 769 772 775 779 783 787 790 793
705 710 714 719 725 731 737 742 747 752 757 760 764 768 772 775 776 780 784 788 791 794